Home > Weather > Lörrach > Past weeks

Flag for Germany Past Weather in Lörrach, Baden-Württemberg, Germany — Yesterday and Last 2 Weeks

Now
64 °F

Clear.


Feels Like: 64 °F
Forecast: 64 / 90 °F
Wind: 3 mph from East

Location: Bale-Mulhouse

Current Time: Aug 25, 2016 at 3:19:57 AM

Latest Report: Aug 25, 2016 at 3:00 AM


Visibility: 10 mi

Pressure: 30.09 "Hg

Humidity: 88%

Dew Point: 61 °F

Location of LörrachLocation

Past Weather in Lörrach — Graph

°F

Lörrach Temperature Yesterday

Maximum temperature yesterday: 88 °F (at 4:30 PM)
Minimum temperature yesterday: 54 °F (at 6:30 AM)
Average temperature yesterday: 71 °F

High & Low Weather Summary for the Past Weeks

 TemperatureHumidityPressure
High88 °F (Aug 14, 5:00 PM)100% (Aug 10, 4:30 AM)30.39 "Hg (Aug 10, 4:30 AM)
Low45 °F (Aug 11, 3:30 AM)33% (Aug 13, 6:30 PM)29.83 "Hg (Aug 17, 4:30 PM)
Average67 °F73%30.13 "Hg
* Reported Aug 10 2:00 AM — Aug 25 2:00 AM, Lörrach, Weather by CustomWeather, © 2016

Note: Actual official high and low records may vary slightly from our data, if they occured in-between our weather recording intervals... More about our weather records

Advertising

Lörrach Weather History for the Previous 24 Hours

Scroll right to see more
 ConditionsComfort  
Time TempWeatherWind HumidityBarometerVisibility
2:00 AM
Thu, Aug 25
66 °FClear.5 mph83%30.09 "Hg10 mi
1:30 AM64 °FClear.3 mph88%30.09 "Hg10 mi
1:00 AM64 °FClear.2 mph94%30.09 "Hg10 mi
12:30 AM64 °FClear.3 mph88%30.09 "Hg10 mi
12:00 AM64 °FClear.No wind88%30.09 "Hg10 mi
11:30 PM
Wed, Aug 24
66 °FClear.1 mph88%30.09 "Hg10 mi
11:00 PM66 °FClear.3 mph88%30.09 "Hg10 mi
10:30 PM68 °FClear.No wind88%30.12 "Hg10 mi
10:00 PM68 °FClear.No wind88%30.12 "Hg10 mi
9:30 PM72 °FClear.2 mph78%30.12 "Hg10 mi
9:00 PM75 °FSunny.2 mph65%30.09 "Hg10 mi
8:30 PM82 °FPassing clouds.3 mph51%30.09 "HgN/A
8:00 PM84 °FSunny.3 mph48%30.09 "Hg10 mi
7:30 PM86 °FPassing clouds.6 mph43%30.09 "HgN/A
7:00 PM86 °FPassing clouds.7 mph43%30.09 "HgN/A
6:30 PM88 °FPassing clouds.6 mph43%30.09 "HgN/A
6:00 PM88 °FPassing clouds.6 mph46%30.09 "HgN/A
5:30 PM88 °FPassing clouds.6 mph46%30.09 "HgN/A
5:00 PM88 °FPassing clouds.7 mph43%30.12 "HgN/A
4:30 PM88 °FPassing clouds.5 mph43%30.12 "HgN/A
4:00 PM86 °FPassing clouds.5 mph46%30.12 "HgN/A
3:30 PM86 °FPassing clouds.5 mph49%30.15 "HgN/A
3:00 PM86 °FPassing clouds.5 mph46%30.15 "HgN/A
2:30 PM84 °FSunny.5 mph48%30.15 "Hg10 mi
2:00 PM82 °FPassing clouds.6 mph51%30.15 "HgN/A
1:30 PM82 °FSunny.6 mph51%30.15 "Hg10 mi
1:00 PM82 °FPassing clouds.6 mph51%30.18 "HgN/A
12:30 PM81 °FPassing clouds.5 mph51%30.18 "HgN/A
12:00 PM79 °FPassing clouds.6 mph54%30.18 "HgN/A
11:30 AM77 °FSunny.3 mph57%30.18 "Hg10 mi
11:00 AM75 °FPassing clouds.3 mph61%30.21 "HgN/A
10:30 AM73 °FPassing clouds.5 mph65%30.21 "HgN/A
10:00 AM72 °FSunny.No wind69%30.21 "Hg10 mi
9:30 AM70 °FSunny.No wind73%30.21 "Hg10 mi
9:00 AM66 °FSunny.2 mph83%30.21 "Hg10 mi
8:30 AM63 °FSunny.2 mph94%30.21 "Hg10 mi
8:00 AM61 °FSunny.1 mph94%30.21 "Hg10 mi
7:30 AM57 °FClear.2 mph100%30.21 "Hg10 mi
7:00 AM55 °FFog.3 mph100%30.21 "HgN/A
6:30 AM54 °FFog.2 mph100%30.21 "HgN/A
6:00 AM55 °FClear.1 mph94%30.21 "Hg10 mi
5:30 AM55 °FClear.No wind100%30.21 "Hg10 mi
5:00 AM55 °FClear.3 mph100%30.21 "Hg10 mi
4:30 AM57 °FClear.1 mph94%30.21 "Hg10 mi
4:00 AM57 °FFog.1 mph94%30.21 "HgN/A
3:30 AM57 °FFog.2 mph94%30.21 "Hg2 mi
3:00 AM57 °FFog.2 mph100%30.21 "HgN/A
Weather by CustomWeather, © 2016

See weather overviewHow to use our weather pages